Location: Cedarbrook
(36.3103°N, 86.6422°W)
Time: 08:32:39
(UTC+00:00)

Aureole 3 Rocket - Pass Details

Date: 29 October 2020
Orbit: 399 x 1739 km, 82.5° (Epoch: 04 December)

Event Time Altitude Azimuth Distance (km) Brightness Sun altitude
Rises 23:22:46 0° 178° (S) 2,520 6.3 -6.7°
Reaches altitude 10° 23:24:37 10° 174° (S) 1,746 5.5 -7.0°
Maximum altitude 23:28:20 64° 93° (E) 693 3.1 -7.8°
Drops below altitude 10° 23:33:26 10° 12° (NNE) 2,386 5.8 -8.8°
Sets 23:36:18 0° 10° (N) 3,553 6.7 -9.4°
